Location: Copper Breaks State Park
(34.1132°N, 99.7492°W)
Time: 23:14:09
(UTC-05:00)

Amateur Radio Satellites - All Passes

Search period start: 28 May 2015 22:44
Search period end: 29 May 2015 22:44
Location: Copper Breaks State Park, 34.1132°N, 99.7492°W

Satellite Date Start Highest point End Downlink Frequencies (MHz)
Time Altitude Azimuth
DELFI C3 28 May 22:56:24 23:00:25 67° 259° (W) 23:04:25 145.870
ESTCUBE 1 28 May 22:56:35 22:56:59 10° 66° (ENE) 22:57:41 437.505/2401.250
UWE-3 28 May 23:00:00 23:04:40 66° 260° (W) 23:09:20 435.000/436.395/437.385
HO-68 28 May 23:03:23 23:08:41 21° 268° (W) 23:13:40 435.675
FUNcube-1 28 May 23:04:34 23:09:10 77° 259° (W) 23:13:45 145.935
AISAT 28 May 23:14:23 23:18:16 31° 72° (ENE) 23:22:15 437.250
CINEMA 3 28 May 23:17:09 23:20:46 19° 268° (W) 23:24:14 145.822/145.860
ANTELSAT 28 May 23:18:38 23:21:23 17° 93° (E) 23:24:15 437.575/2403.000
HUMSAT D 28 May 23:23:27 23:27:47 79° 77° (ENE) 23:32:06 437.325/437.525
Cosmos 2504 28 May 23:26:23 23:32:28 29° 272° (W) 23:38:24 435.465 / 435.565
CUSAT 1 28 May 23:26:48 23:29:32 13° 59° (ENE) 23:32:23 437.405
ISS 28 May 23:33:06 23:36:16 53° 319° (NW) 23:39:28 145.825
UKube-1 28 May 23:43:50 23:48:05 58° 259° (W) 23:52:22 .
ZACube-1 28 May 23:46:59 23:50:48 25° 265° (W) 23:54:32 437.345
QB50P1 28 May 23:48:21 23:50:53 16° 92° (E) 23:53:37 145.935-145.965
TIGRISAT 28 May 23:49:27 23:53:30 38° 98° (E) 23:57:30 435.000
50 SAT 28 May 23:51:03 23:55:04 86° 258° (WSW) 23:59:04 437.505
POLYITAN 1 28 May 23:51:18 23:54:07 18° 93° (E) 23:57:04 437.675
DX 1 28 May 23:55:56 00:00:00 38° 262° (W) 00:04:05 434.975-435.025
CUBEBUG 2 28 May 23:56:06 23:58:36 14° 270° (W) 00:00:51 437.445
PCSat 28 May 23:56:25 23:59:04 14° 105° (ESE) 00:02:01 145.827
GONETS M04 29 May 00:07:26 00:14:19 26° 70° (ENE) 00:21:29
CUBEBUG 1 29 May 00:10:01 00:14:19 65° 76° (ENE) 00:18:41 437.445
UNISAT 6 29 May 00:10:37 00:14:58 75° 101° (ESE) 00:19:13 437.425
NANOSAT C BR1 29 May 00:17:47 00:21:43 36° 98° (E) 00:25:38 145.865
VELOX 1 29 May 00:17:59 00:22:15 47° 260° (W) 00:26:34 145.980
QB50P2 29 May 00:27:14 00:31:23 49° 99° (E) 00:35:31 145.880/145.840
ESTCUBE 1 29 May 00:28:57 00:33:23 64° 259° (W) 00:37:50 437.505/2401.250
POPSAT HIP 1 29 May 00:38:53 00:43:09 68° 101° (E) 00:47:22 437.405
DUCHIFAT 1 29 May 00:39:04 00:43:19 66° 101° (E) 00:47:31 145.980
SPROUT 29 May 00:41:04 00:45:00 36° 73° (ENE) 00:49:00 437.525
DANDE 29 May 00:49:33 00:56:52 58° 76° (ENE) 01:02:27 436.750
AISAT 29 May 00:51:40 00:54:56 19° 267° (W) 00:58:04 437.250
VERMONT LUNAR 29 May 00:52:29 00:55:26 32° 148° (SSE) 00:58:23 437.305
BUGSAT 1 29 May 00:52:33 00:56:48 65° 100° (E) 01:00:59 437.445
ANTELSAT 29 May 00:54:25 00:58:18 32° 288° (WNW) 01:02:05 437.575/2403.000
TISAT 1 29 May 00:56:01 00:59:56 39° 74° (ENE) 01:03:56 437.305
CUSAT 1 29 May 01:06:53 01:13:37 77° 264° (W) 01:18:38 437.405
BEESAT 29 May 01:21:09 01:22:43 12° 66° (ENE) 01:24:35 436.000
QB50P1 29 May 01:23:01 01:26:54 34° 287° (WNW) 01:30:43 145.935-145.965
POLYITAN 1 29 May 01:26:20 01:30:07 30° 288° (WNW) 01:33:49 437.675
TIGRISAT 29 May 01:27:25 01:29:57 15° 292° (WNW) 01:32:17 435.000
SWISSCUBE 29 May 01:28:43 01:31:30 16° 68° (ENE) 01:34:28 437.505
PCSat 29 May 01:36:41 01:42:02 61° 298° (WNW) 01:47:24 145.827
O/OREOS (USA 219) 29 May 01:42:05 01:45:56 28° 63° (ENE) 01:49:50 437.305
PHONESAT 2.4 29 May 01:47:09 01:49:59 23° 145° (SE) 01:52:51 2401.200-2431.200
NANOSAT C BR1 29 May 01:54:38 01:57:17 16° 291° (WNW) 01:59:44 145.865
Cosmos 2499 29 May 01:56:25 02:01:13 20° 70° (ENE) 02:06:24 435.465 / 435.565
GONETS M04 29 May 02:03:11 02:11:45 58° 268° (W) 02:20:09
QB50P2 29 May 02:05:14 02:06:53 12° 292° (WNW) 02:08:18 145.880/145.840
Oscar 19 29 May 02:17:15 02:21:17 24° 94° (E) 02:25:27 437.125/150
SPROUT 29 May 02:18:36 02:21:16 15° 268° (W) 02:23:44 437.525
VERMONT LUNAR 29 May 02:29:26 02:32:34 45° 342° (NNW) 02:35:41 437.305
TISAT 1 29 May 02:33:37 02:35:56 14° 268° (W) 02:38:02 437.305
DANDE 29 May 02:34:23 02:39:10 19° 278° (W) 02:43:00 436.750
BEESAT 3 29 May 02:45:03 02:47:55 19° 51° (NE) 02:50:51 437.485
SO-50 29 May 02:47:01 02:51:05 32° 113° (ESE) 02:55:23 436.795
ITUPSAT 1 29 May 02:49:07 02:53:51 75° 257° (WSW) 02:58:38 437.325
BEESAT 29 May 02:55:25 03:00:06 62° 259° (W) 03:04:50 436.000
SWISSCUBE 29 May 03:04:29 03:09:01 44° 261° (W) 03:13:34 437.505
O/OREOS (USA 219) 29 May 03:21:48 03:25:13 21° 257° (WSW) 03:28:29 437.305
STARS 29 May 03:22:58 03:26:31 25° 71° (ENE) 03:30:12 437.465
PHONESAT 2.4 29 May 03:24:28 03:27:56 63° 339° (NNW) 03:31:24 2401.200-2431.200
Gurwin Techsat 1B 29 May 03:26:28 03:31:06 31° 96° (E) 03:35:49 435.225
BEESAT 2 29 May 03:36:05 03:40:06 53° 59° (ENE) 03:44:02 435.950
AIST 2 29 May 03:41:15 03:44:03 17° 50° (NE) 03:46:56 435.215
Cosmos 2499 29 May 03:47:59 03:54:52 58° 267° (W) 04:01:57 435.465 / 435.565
Oscar 19 29 May 03:56:07 04:00:42 33° 289° (WNW) 04:05:13 437.125/150
KKS-1 29 May 03:59:43 04:04:12 72° 259° (WSW) 04:08:41 437.445
VERMONT LUNAR 29 May 04:07:27 04:10:11 24° 359° (N) 04:12:53 437.305
JAS-2 29 May 04:14:07 04:16:36 14° 92° (E) 04:19:31 435.910
ITAMSAT 1 29 May 04:14:36 04:19:51 81° 286° (WNW) 04:25:05 435.822/435.867
BEESAT 3 29 May 04:22:21 04:25:59 32° 247° (WSW) 04:29:32 437.485
SO-50 29 May 04:27:47 04:31:42 25° 309° (NW) 04:35:37 436.795
HORYU 2 29 May 04:48:17 04:52:11 31° 97° (E) 04:56:08 437.375
STARS 29 May 04:59:14 05:02:54 24° 265° (W) 05:06:30 437.465
PHONESAT 2.4 29 May 05:03:21 05:06:24 28° 355° (N) 05:09:28 2401.200-2431.200
AO-7 29 May 05:03:47 05:11:30 41° 99° (E) 05:19:18 29.400- 29.500
Gurwin Techsat 1B 29 May 05:06:32 05:11:00 27° 290° (WNW) 05:15:21 435.225
AIST 2 29 May 05:18:54 05:22:48 37° 246° (WSW) 05:26:36 435.215
VERMONT LUNAR 29 May 05:44:48 05:47:49 38° 15° (NNE) 05:50:50 437.305
MOZHAYETS 4 29 May 05:45:29 05:50:02 69° 259° (W) 05:54:36
Cosmos 2491 29 May 05:53:40 05:58:52 18° 65° (ENE) 06:04:36 435.465 / 435.565
JAS-2 29 May 05:57:05 06:02:09 53° 286° (WNW) 06:07:27 435.910
CUBESAT XI-V 29 May 05:58:06 05:58:33 10° 66° (ENE) 05:59:18 437.345
ISS 29 May 06:03:45 06:06:37 27° 36° (NE) 06:09:29 145.825
HORYU 2 29 May 06:25:26 06:28:39 19° 291° (WNW) 06:31:43 437.375
STRAND 1 29 May 06:34:49 06:36:45 12° 65° (ENE) 06:38:57 437.568
YUBILEINY 29 May 06:41:30 06:46:02 16° 82° (E) 06:51:10 435.215
PHONESAT 2.4 29 May 06:41:48 06:45:02 35° 12° (NNE) 06:48:16 2401.200-2431.200
CUTE-I 29 May 06:46:31 06:49:18 15° 91° (E) 06:52:22 437.470
AO-7 29 May 06:56:37 07:04:15 40° 295° (WNW) 07:11:46 29.400- 29.500
Cubesat XI-IV 29 May 07:06:40 07:10:56 24° 95° (E) 07:15:19 437.490
VERMONT LUNAR 29 May 07:21:59 07:25:02 41° 210° (SSW) 07:28:02 437.305
CUBESAT XI-V 29 May 07:30:55 07:35:29 67° 259° (W) 07:40:06 437.345
ISS 29 May 07:40:20 07:42:56 22° 230° (SW) 07:45:29 145.825
Cosmos 2491 29 May 07:48:07 07:56:59 82° 265° (W) 08:05:45 435.465 / 435.565
PRISM 29 May 07:51:14 07:55:18 86° 257° (WSW) 07:59:25 437.425
M-CUBED/EXP-1 PRIME 29 May 08:02:22 08:06:37 73° 73° (ENE) 08:10:32 437.505
AUBIESAT-1 29 May 08:08:12 08:12:24 74° 72° (ENE) 08:16:16 437.475
STRAND 1 29 May 08:10:24 08:15:27 67° 259° (W) 08:20:32 437.568
PHONESAT 2.4 29 May 08:19:51 08:23:17 62° 208° (SSW) 08:26:42 2401.200-2431.200
CUTE-I 29 May 08:24:32 08:29:48 57° 286° (WNW) 08:35:02 437.470
AIST 1 29 May 08:27:15 08:31:36 62° 82° (E) 08:35:57
RS-15 29 May 08:28:24 08:38:02 40° 109° (ESE) 08:48:02 29.354- 29.394
YUBILEINY 29 May 08:33:09 08:41:58 83° 277° (W) 08:50:45 435.215
Cubesat XI-IV 29 May 08:46:14 08:51:06 35° 289° (WNW) 08:55:54 437.490
HO-68 29 May 08:48:39 08:51:01 12° 88° (E) 08:54:00 435.675
GOMX 1 29 May 09:30:18 09:35:09 38° 96° (E) 09:39:46 467.674
BRITE-PL 29 May 09:40:17 09:45:53 81° 100° (E) 09:51:08 437.365/2234.400
CINEMA 3 29 May 09:40:17 09:41:43 12° 88° (E) 09:43:25 145.822/145.860
CANX-2 29 May 09:48:52 09:52:45 36° 97° (E) 09:56:38 2200.000
Cosmos 2491 29 May 09:49:09 09:52:43 12° 280° (W) 09:55:29 435.465 / 435.565
CUTE 1.7 + AOD 2 29 May 09:52:02 09:55:53 35° 97° (E) 09:59:46 437.475
Cosmos 2504 29 May 10:05:35 10:13:06 40° 90° (E) 10:20:19 435.465 / 435.565
SEEDS 29 May 10:10:27 10:14:29 48° 99° (E) 10:18:32 437.485
Oscar 11 29 May 10:10:57 10:12:57 13° 91° (E) 10:15:12 145.826/435.025
JUGNU 29 May 10:13:28 10:16:58 16° 170° (S) 10:20:30 437.505
CUBEBUG 2 29 May 10:14:10 10:16:03 13° 90° (E) 10:18:10 437.445
ANTELSAT 29 May 10:15:30 10:17:00 12° 67° (ENE) 10:18:45 437.575/2403.000
DOVE 4 29 May 10:18:30 10:23:32 79° 100° (E) 10:28:14 437.250
COMPASS 1 29 May 10:19:31 10:23:32 48° 99° (E) 10:27:34 437.405
PCSat 29 May 10:28:21 10:33:34 47° 60° (ENE) 10:38:47 145.827
AAUSAT CUBESAT 2 29 May 10:29:24 10:33:27 55° 100° (E) 10:37:30 437.432
HO-68 29 May 10:32:35 10:39:46 90° 100° (E) 10:46:56 435.675
YUBILEINY 29 May 10:36:03 10:40:23 14° 298° (WNW) 10:44:00 435.215
RS-15 29 May 10:39:38 10:50:11 51° 308° (NW) 11:00:54 29.354- 29.394
DELFI C3 29 May 10:40:06 10:43:05 20° 94° (E) 10:46:10 145.870
TIGRISAT 29 May 10:44:42 10:48:24 24° 71° (ENE) 10:52:11 435.000
UWE-3 29 May 10:54:26 10:58:16 31° 96° (E) 11:02:03 435.000/436.395/437.385
FUNcube-1 29 May 10:57:38 11:01:09 25° 95° (E) 11:04:39 145.935
UNISAT 6 29 May 11:05:32 11:09:56 43° 74° (ENE) 11:14:20 437.425
NANOSAT C BR1 29 May 11:07:36 11:10:24 18° 70° (ENE) 11:13:21 145.865
GOMX 1 29 May 11:09:00 11:13:00 22° 292° (WNW) 11:16:41 467.674
HUMSAT D 29 May 11:12:41 11:15:12 16° 92° (E) 11:17:52 437.325/437.525
CINEMA 3 29 May 11:14:53 11:19:23 51° 285° (WNW) 11:23:39 145.822/145.860
QB50P2 29 May 11:16:58 11:20:22 24° 71° (ENE) 11:23:51 145.880/145.840
BRITE-PL 29 May 11:21:31 11:23:39 12° 296° (WNW) 11:25:25 437.365/2234.400
SO-50 29 May 11:23:00 11:25:33 14° 45° (NE) 11:28:17 436.795
CANX-2 29 May 11:25:53 11:28:25 15° 290° (WNW) 11:30:46 2200.000
DUCHIFAT 1 29 May 11:27:58 11:31:39 30° 72° (ENE) 11:35:26 145.980
POPSAT HIP 1 29 May 11:28:10 11:31:55 31° 73° (ENE) 11:35:45 437.405
CUTE 1.7 + AOD 2 29 May 11:28:58 11:31:33 16° 290° (WNW) 11:33:58 437.475
50 SAT 29 May 11:32:44 11:34:42 14° 92° (E) 11:36:51 437.505
UKube-1 29 May 11:35:20 11:39:09 30° 97° (E) 11:42:59 .
SRMSAT 29 May 11:36:00 11:39:03 14° 168° (SSE) 11:42:10 437.500
ZACube-1 29 May 11:38:44 11:43:02 88° 102° (ESE) 11:47:13 437.345
BUGSAT 1 29 May 11:39:19 11:42:46 27° 72° (ENE) 11:46:21 437.445
Oscar 11 29 May 11:45:19 11:49:22 40° 286° (WNW) 11:53:23 145.826/435.025
DX 1 29 May 11:47:43 11:51:56 46° 99° (E) 11:56:10 434.975-435.025
SEEDS 29 May 11:48:23 11:49:55 11° 292° (WNW) 11:51:11 437.485
ANTELSAT 29 May 11:48:41 11:53:20 61° 260° (W) 11:57:56 437.575/2403.000
CUBEBUG 2 29 May 11:48:55 11:53:04 41° 286° (WNW) 11:57:04 437.445
COMPASS 1 29 May 11:57:29 11:58:50 11° 292° (WNW) 11:59:57 437.405
Cosmos 2504 29 May 11:58:58 12:06:31 36° 285° (WNW) 12:13:29 435.465 / 435.565
JUGNU 29 May 12:01:06 12:05:20 20° 180° (S) 12:09:32 437.505
CUBEBUG 1 29 May 12:03:51 12:06:35 16° 92° (E) 12:09:30 437.445
QB50P1 29 May 12:11:19 12:15:35 76° 258° (WSW) 12:19:53 145.935-145.965
VELOX 1 29 May 12:12:09 12:16:24 42° 99° (E) 12:20:39 145.980
PCSat 29 May 12:12:51 12:16:40 19° 253° (WSW) 12:20:15 145.827
DANDE 29 May 12:14:34 12:17:31 13° 80° (E) 12:21:17 436.750
POLYITAN 1 29 May 12:14:49 12:19:06 68° 259° (W) 12:23:25 437.675
DELFI C3 29 May 12:14:54 12:18:09 23° 288° (WNW) 12:21:18 145.870
TIGRISAT 29 May 12:21:00 12:25:03 28° 264° (W) 12:28:59 435.000
HO-68 29 May 12:22:48 12:26:42 15° 300° (WNW) 12:30:09 435.675
CUSAT 1 29 May 12:24:58 12:30:25 24° 85° (E) 12:36:41 437.405
ESTCUBE 1 29 May 12:25:32 12:29:40 35° 97° (E) 12:33:51 437.505/2401.250
UWE-3 29 May 12:31:38 12:34:35 18° 290° (WNW) 12:37:20 435.000/436.395/437.385
FUNcube-1 29 May 12:34:06 12:37:21 21° 290° (WNW) 12:40:27 145.935
NANOSAT C BR1 29 May 12:42:11 12:46:02 32° 263° (W) 12:49:51 145.865
UNISAT 6 29 May 12:44:03 12:46:56 15° 268° (W) 12:49:35 437.425
AISAT 29 May 12:44:36 12:49:07 75° 283° (WNW) 12:53:33 437.250
HUMSAT D 29 May 12:47:24 12:51:04 30° 287° (WNW) 12:54:39 437.325/437.525
QB50P2 29 May 12:52:41 12:56:11 23° 265° (W) 12:59:37 145.880/145.840
RS-15 29 May 13:00:11 13:06:20 15° 337° (NNW) 13:12:10 29.354- 29.394
SO-50 29 May 13:01:45 13:06:42 72° 243° (WSW) 13:11:32 436.795
GONETS M04 29 May 13:03:30 13:11:04 35° 87° (E) 13:18:51
DUCHIFAT 1 29 May 13:04:28 13:07:32 18° 267° (W) 13:10:27 145.980
POPSAT HIP 1 29 May 13:04:52 13:07:52 18° 267° (W) 13:10:44 437.405
50 SAT 29 May 13:06:06 13:09:33 30° 287° (WNW) 13:12:55 437.505
UKube-1 29 May 13:11:55 13:15:07 20° 290° (WNW) 13:18:10 .
BUGSAT 1 29 May 13:15:10 13:18:15 20° 266° (W) 13:21:15 437.445
SRMSAT 29 May 13:23:24 13:27:34 20° 178° (S) 13:31:43 437.500
DX 1 29 May 13:25:36 13:27:50 13° 292° (WNW) 13:29:51 434.975-435.025
Oscar 19 29 May 13:30:35 13:34:40 25° 69° (ENE) 13:38:54 437.125/150
CUBEBUG 1 29 May 13:39:00 13:43:06 36° 287° (WNW) 13:47:08 437.445
VELOX 1 29 May 13:50:00 13:52:38 15° 292° (WNW) 13:55:06 145.980
JUGNU 29 May 13:50:06 13:53:42 16° 190° (S) 13:57:13 437.505
DANDE 29 May 13:52:22 13:59:26 83° 97° (E) 14:07:55 436.750
ITAMSAT 1 29 May 13:53:57 13:55:03 11° 64° (ENE) 13:56:30 435.822/435.867
ESTCUBE 1 29 May 14:03:09 14:06:19 18° 290° (WNW) 14:09:20 437.505/2401.250
CUSAT 1 29 May 14:05:08 14:12:26 65° 282° (WNW) 14:20:41 437.405
SPROUT 29 May 14:07:00 14:11:19 65° 284° (WNW) 14:15:34 437.525
TISAT 1 29 May 14:19:32 14:23:47 65° 284° (WNW) 14:27:58 437.305
Cosmos 2499 29 May 14:29:18 14:34:27 20° 86° (E) 14:39:48 435.465 / 435.565
Gurwin Techsat 1B 29 May 14:43:55 14:48:37 34° 71° (ENE) 14:53:25 435.225
ITUPSAT 1 29 May 14:53:39 14:58:05 37° 98° (E) 15:02:33 437.325
GONETS M04 29 May 14:59:22 15:07:44 45° 284° (WNW) 15:16:03
BEESAT 29 May 14:59:26 15:03:59 45° 99° (E) 15:08:34 436.000
SWISSCUBE 29 May 15:08:16 15:13:01 62° 101° (E) 15:17:45 437.505
Oscar 19 29 May 15:09:12 15:13:53 33° 263° (W) 15:18:32 437.125/150
SRMSAT 29 May 15:12:15 15:16:05 18° 188° (S) 15:19:51 437.500
RS-15 29 May 15:21:30 15:25:46 13° 15° (NNE) 15:30:29 29.354- 29.394
ITAMSAT 1 29 May 15:28:49 15:33:58 78° 257° (WSW) 15:39:11 435.822/435.867
DANDE 29 May 15:38:41 15:43:58 19° 298° (WNW) 15:49:15 436.750
HORYU 2 29 May 15:43:38 15:46:46 19° 70° (ENE) 15:50:01 437.375
O/OREOS (USA 219) 29 May 15:49:58 15:54:27 69° 108° (ESE) 15:58:56 437.305
CUSAT 1 29 May 15:54:36 15:57:04 11° 302° (WNW) 15:58:52 437.405
KKS-1 29 May 15:55:02 15:58:53 29° 96° (E) 16:02:47 437.445
AO-7 29 May 15:58:49 16:06:17 41° 65° (ENE) 16:13:56 29.400- 29.500
JAS-2 29 May 16:04:42 16:10:50 41° 73° (ENE) 16:16:23 435.910
Cosmos 2499 29 May 16:19:01 16:27:09 66° 279° (W) 16:34:40 435.465 / 435.565
Gurwin Techsat 1B 29 May 16:24:22 16:28:41 24° 266° (W) 16:32:52 435.225
ITUPSAT 1 29 May 16:32:19 16:35:44 19° 291° (WNW) 16:39:00 437.325
BEESAT 29 May 16:38:31 16:41:31 16° 292° (WNW) 16:44:18 436.000
SWISSCUBE 29 May 16:48:30 16:50:24 12° 294° (WNW) 16:52:00 437.505
STARS 29 May 16:51:44 16:56:11 82° 103° (ESE) 17:00:35 437.465
HORYU 2 29 May 17:19:10 17:23:13 32° 263° (W) 17:27:12 437.375
BEESAT 2 29 May 17:26:43 17:30:02 25° 112° (ESE) 17:33:27 435.950
KKS-1 29 May 17:31:57 17:35:23 21° 290° (WNW) 17:38:41 437.445
RS-15 29 May 17:32:45 17:43:10 37° 46° (NE) 17:54:10 29.354- 29.394
MOZHAYETS 4 29 May 17:44:31 17:48:44 36° 97° (E) 17:52:58
JAS-2 29 May 17:50:25 17:56:00 26° 264° (W) 18:00:56 435.910
AO-7 29 May 17:51:25 17:59:05 40° 261° (W) 18:06:41 29.400- 29.500
CUTE-I 29 May 18:04:51 18:08:12 18° 67° (ENE) 18:11:46 437.470
BEESAT 3 29 May 18:10:55 18:14:58 73° 299° (WNW) 18:19:05 437.485
Cubesat XI-IV 29 May 18:25:09 18:29:35 28° 70° (ENE) 18:34:07 437.490
YUBILEINY 29 May 18:48:25 18:56:26 41° 75° (ENE) 19:04:34 435.215
Cosmos 2491 29 May 18:50:23 18:56:35 23° 84° (E) 19:03:12 435.465 / 435.565
BEESAT 2 29 May 19:04:41 19:08:04 24° 307° (NW) 19:11:25 435.950
AIST 2 29 May 19:12:38 19:16:52 73° 299° (WNW) 19:21:10 435.215
MOZHAYETS 4 29 May 19:22:35 19:25:43 18° 291° (WNW) 19:28:41
CUBESAT XI-V 29 May 19:31:25 19:35:51 40° 98° (E) 19:40:18 437.345
PRISM 29 May 19:38:16 19:40:58 17° 94° (E) 19:43:50 437.425
CUTE-I 29 May 19:42:48 19:47:56 49° 260° (W) 19:53:05 437.470
RS-15 29 May 19:44:49 19:56:23 64° 247° (WSW) 20:08:17 29.354- 29.394
Cubesat XI-IV 29 May 20:04:59 20:09:37 30° 264° (W) 20:14:13 437.490
STRAND 1 29 May 20:24:40 20:29:44 57° 100° (E) 20:34:48 437.568
GOMX 1 29 May 20:34:12 20:38:34 29° 70° (ENE) 20:43:13 467.674
CANX-2 29 May 20:39:13 20:41:56 17° 70° (ENE) 20:44:47 2200.000
CUTE 1.7 + AOD 2 29 May 20:42:21 20:45:00 17° 70° (ENE) 20:47:48 437.475
Cosmos 2491 29 May 20:44:06 20:52:49 64° 280° (W) 21:01:35 435.465 / 435.565
YUBILEINY 29 May 20:45:24 20:53:11 37° 272° (W) 21:00:46 435.215
BRITE-PL 29 May 20:46:31 20:51:32 60° 75° (ENE) 20:56:57 437.365/2234.400
AIST 1 29 May 20:52:52 20:56:52 42° 93° (E) 21:00:56
HO-68 29 May 20:56:53 21:03:37 47° 69° (ENE) 21:10:26 435.675
SEEDS 29 May 20:59:31 21:02:41 21° 71° (ENE) 21:05:57 437.485
COMPASS 1 29 May 21:07:49 21:10:55 21° 71° (ENE) 21:14:07 437.405
CUBESAT XI-V 29 May 21:09:53 21:13:00 17° 291° (WNW) 21:15:57 437.345
PRISM 29 May 21:12:49 21:16:29 30° 288° (WNW) 21:20:07 437.425
AAUSAT CUBESAT 2 29 May 21:17:07 21:20:21 23° 72° (ENE) 21:23:41 437.432
DOVE 4 29 May 21:19:20 21:24:18 53° 75° (ENE) 21:29:29 437.250
M-CUBED/EXP-1 PRIME 29 May 21:21:50 21:25:07 72° 288° (WNW) 21:28:30 437.505
AUBIESAT-1 29 May 21:26:59 21:30:17 73° 288° (WNW) 21:33:40 437.475
UWE-3 29 May 21:48:17 21:51:31 19° 70° (ENE) 21:54:54 435.000/436.395/437.385
FUNcube-1 29 May 21:50:39 21:53:10 15° 69° (ENE) 21:55:52 145.935
Cosmos 2504 29 May 21:54:45 22:01:51 65° 81° (E) 22:09:05 435.465 / 435.565
STRAND 1 29 May 22:05:34 22:08:31 15° 294° (WNW) 22:11:14 437.568
CINEMA 3 29 May 22:11:38 22:16:38 90° 257° (WSW) 22:21:42 145.822/145.860
GOMX 1 29 May 22:12:05 22:16:37 30° 266° (W) 22:21:16 467.674
CANX-2 29 May 22:13:47 22:17:39 32° 263° (W) 22:21:27 2200.000
CUTE 1.7 + AOD 2 29 May 22:16:49 22:20:41 33° 263° (W) 22:24:32 437.475
UKube-1 29 May 22:27:37 22:30:17 17° 69° (ENE) 22:33:07 .
BRITE-PL 29 May 22:27:56 22:30:38 14° 273° (W) 22:33:05 437.365/2234.400
ZACube-1 29 May 22:30:33 22:34:53 43° 74° (ENE) 22:39:15 437.345
AIST 1 29 May 22:33:03 22:34:51 12° 289° (WNW) 22:36:23
SEEDS 29 May 22:34:50 22:38:23 25° 265° (W) 22:41:50 437.485
